Waseca, MN

12:44 AM CDT on May 30, 2017 (GMT -0500)
Waseca Municipal

Weather History for KACQ - November, 2012

Change the Weather History Date:

Tuesday, November 13, 2012

  Actual Average Record
Temperature  
Mean Temperature 30 °F -  
Max Temperature 44 °F 38 °F 68 °F (1930)
Min Temperature 17 °F 23 °F -7 °F (1919)
Degree Days  
Heating Degree Days 34    
Moisture  
Dew Point 22 °F    
Average Humidity 66    
Maximum Humidity 80    
Minimum Humidity 43    
Precipitation  
Precipitation 0.00 in - - ()
Sea Level Pressure  
Sea Level Pressure 30.32 in    
Wind  
Wind Speed 6 mph (SSE)    
Max Wind Speed 14 mph    
Max Gust Speed 21 mph    
Visibility 10 miles    
Events      
Averages and records for this station are not official NWS values.
T = Trace of Precipitation, MM = Missing Value Source: NWS Daily Summary

Daily Weather History Graph

Daily Weather History Graph

Search for Another Location

Airport or City:

Trip Planner

Search our weather history database for the weather conditions in past years. The results will help you decide how hot, cold, wet, or windy it might be!

Date:

Astronomy

Nov. 13, 2012 Rise Set
Actual Time 7:07 AM CST 4:49 PM CST
Civil Twilight 6:36 AM CST 5:20 PM CST
Nautical Twilight 6:01 AM CST 5:55 PM CST
Astronomical Twilight 5:27 AM CST 6:29 PM CST
Moon 6:46 AM CST (11/13) 4:41 PM CST (11/13)
Length of Visible Light 10h 43m
Length of Day
9h 41m
Waning Crescent, 0% of the Moon is Illuminated
Nov 13
Waning Crescent
Nov 13
New
Nov 20
First Quarter
Nov 28
Full
Dec 6
Last Quarter

Hourly Weather History & Observations

Time (CST) Temp. Windchill Dew Point Humidity Pressure Visibility Wind Dir Wind Speed Gust Speed Precip Events Conditions
12:13 AM 19.4 °F 12.8 °F 14.0 °F 80% 30.32 in 10.0 mi SSW 4.6 mph - N/A   Clear
12:33 AM 19.4 °F 12.8 °F 14.0 °F 80% 30.33 in 10.0 mi SSW 4.6 mph - N/A   Clear
12:53 AM 19.4 °F 12.8 °F 14.0 °F 80% 30.33 in 10.0 mi SW 4.6 mph - N/A   Clear
1:13 AM 19.4 °F 14.3 °F 14.0 °F 80% 30.33 in 10.0 mi SW 3.5 mph - N/A   Clear
1:33 AM 19.4 °F - 14.0 °F 80% 30.33 in 10.0 mi Calm Calm - N/A   Clear
1:53 AM 19.4 °F - 14.0 °F 80% 30.33 in 10.0 mi Calm Calm - N/A   Clear
2:13 AM 19.4 °F - 14.0 °F 80% 30.33 in 10.0 mi Calm Calm - N/A   Clear
2:53 AM 19.4 °F - 14.0 °F 80% 30.34 in 10.0 mi Calm Calm - N/A   Clear
3:12 AM 19.4 °F - 14.0 °F 80% 30.33 in 10.0 mi Calm Calm - N/A   Clear
3:33 AM 19.4 °F 14.3 °F 12.2 °F 74% 30.34 in 10.0 mi South 3.5 mph - N/A   Clear
3:53 AM 17.6 °F 10.7 °F 12.2 °F 79% 30.34 in 10.0 mi South 4.6 mph - N/A   Clear
4:13 AM 19.4 °F 14.3 °F 14.0 °F 80% 30.34 in 10.0 mi South 3.5 mph - N/A   Clear
4:33 AM 19.4 °F - 14.0 °F 80% 30.35 in 10.0 mi Calm Calm - N/A   Clear
4:53 AM 19.4 °F - 14.0 °F 80% 30.35 in 10.0 mi Calm Calm - N/A   Clear
5:12 AM 19.4 °F - 14.0 °F 80% 30.35 in 10.0 mi Calm Calm - N/A   Clear
5:33 AM 19.4 °F 11.5 °F 14.0 °F 80% 30.35 in 10.0 mi South 5.8 mph - N/A   Clear
6:13 AM 19.4 °F 9.5 °F 14.0 °F 80% 30.36 in 10.0 mi South 8.1 mph - N/A   Clear
6:33 AM 19.4 °F 10.4 °F 14.0 °F 80% 30.36 in 10.0 mi South 6.9 mph - N/A   Clear
6:53 AM 19.4 °F 12.8 °F 14.0 °F 80% 30.36 in 10.0 mi South 4.6 mph - N/A   Clear
7:12 AM 19.4 °F 11.5 °F 14.0 °F 80% 30.36 in 10.0 mi South 5.8 mph - N/A   Clear
7:33 AM 19.4 °F 12.8 °F 14.0 °F 80% 30.37 in 10.0 mi South 4.6 mph - N/A   Clear
7:53 AM 23.0 °F 15.8 °F 15.8 °F 74% 30.37 in 10.0 mi South 5.8 mph - N/A   Clear
8:12 AM 24.8 °F 17.9 °F 17.6 °F 74% 30.37 in 10.0 mi South 5.8 mph - N/A   Clear
8:33 AM 26.6 °F 19.1 °F 19.4 °F 74% 30.37 in 10.0 mi South 6.9 mph - N/A   Clear
8:53 AM 28.4 °F 20.4 °F 19.4 °F 69% 30.37 in 10.0 mi South 8.1 mph - N/A   Clear
9:13 AM 32.0 °F 24.8 °F 21.2 °F 64% 30.37 in 10.0 mi South 8.1 mph - N/A   Clear
9:33 AM 33.8 °F 25.8 °F 23.0 °F 65% 30.37 in 10.0 mi South 10.4 mph - N/A   Clear
9:53 AM 33.8 °F 25.8 °F 23.0 °F 65% 30.37 in 10.0 mi South 10.4 mph - N/A   Clear
10:13 AM 35.6 °F 28.0 °F 23.0 °F 60% 30.37 in 10.0 mi South 10.4 mph - N/A   Clear
10:33 AM 39.2 °F 32.0 °F 24.8 °F 56% 30.36 in 10.0 mi South 11.5 mph - N/A   Clear
10:53 AM 39.2 °F 32.5 °F 23.0 °F 52% 30.35 in 10.0 mi South 10.4 mph - N/A   Clear
11:12 AM 41.0 °F 33.5 °F 24.8 °F 53% 30.35 in 10.0 mi South 13.8 mph 18.4 mph N/A   Clear
11:33 AM 41.0 °F 33.5 °F 24.8 °F 53% 30.35 in 10.0 mi South 13.8 mph - N/A   Clear
11:53 AM 41.0 °F 34.3 °F 24.8 °F 53% 30.34 in 10.0 mi South 11.5 mph - N/A   Clear
12:13 PM 41.0 °F 34.3 °F 24.8 °F 53% 30.33 in 10.0 mi SSW 11.5 mph - N/A   Clear
12:53 PM 42.8 °F 37.0 °F 24.8 °F 49% 30.32 in 10.0 mi South 10.4 mph - N/A   Clear
1:13 PM 44.6 °F 38.4 °F 26.6 °F 49% 30.32 in 10.0 mi South 12.7 mph - N/A   Clear
1:33 PM 44.6 °F 38.8 °F 26.6 °F 49% 30.31 in 10.0 mi South 11.5 mph - N/A   Clear
1:53 PM 44.6 °F 38.4 °F 26.6 °F 49% 30.31 in 10.0 mi South 12.7 mph 20.7 mph N/A   Clear
2:13 PM 44.6 °F 38.8 °F 26.6 °F 49% 30.30 in 10.0 mi South 11.5 mph - N/A   Clear
2:33 PM 44.6 °F 39.2 °F 24.8 °F 46% 30.29 in 10.0 mi SSE 10.4 mph - N/A   Clear
2:53 PM 44.6 °F 38.8 °F 24.8 °F 46% 30.29 in 10.0 mi South 11.5 mph - N/A   Clear
3:13 PM 44.6 °F 38.4 °F 23.0 °F 43% 30.29 in 10.0 mi SSE 12.7 mph - N/A   Clear
3:33 PM 44.6 °F 39.2 °F 24.8 °F 46% 30.29 in 10.0 mi SSE 10.4 mph - N/A   Clear
3:53 PM 44.6 °F 40.2 °F 26.6 °F 49% 30.29 in 10.0 mi SSE 8.1 mph - N/A   Clear
4:13 PM 42.8 °F 37.0 °F 26.6 °F 53% 30.29 in 10.0 mi SSE 10.4 mph - N/A   Scattered Clouds
4:34 PM 41.0 °F 36.4 °F 26.6 °F 57% 30.29 in 10.0 mi SSE 6.9 mph - N/A   Scattered Clouds
4:53 PM 41.0 °F 35.2 °F 26.6 °F 57% 30.29 in 10.0 mi SE 9.2 mph - N/A   Mostly Cloudy
5:13 PM 39.2 °F 34.2 °F 26.6 °F 61% 30.29 in 10.0 mi SE 6.9 mph - N/A   Mostly Cloudy
5:33 PM 39.2 °F 33.6 °F 28.4 °F 65% 30.28 in 10.0 mi SE 8.1 mph - N/A   Scattered Clouds
5:53 PM 39.2 °F 33.6 °F 28.4 °F 65% 30.28 in 10.0 mi SE 8.1 mph - N/A   Mostly Cloudy
6:13 PM 39.2 °F 34.2 °F 28.4 °F 65% 30.29 in 10.0 mi SE 6.9 mph - N/A   Overcast
6:33 PM 39.2 °F 33.6 °F 28.4 °F 65% 30.29 in 10.0 mi SE 8.1 mph - N/A   Overcast
6:53 PM 39.2 °F 33.6 °F 28.4 °F 65% 30.29 in 10.0 mi SE 8.1 mph - N/A   Overcast
7:13 PM 39.2 °F 33.6 °F 28.4 °F 65% 30.29 in 10.0 mi SE 8.1 mph - N/A   Overcast
7:33 PM 39.2 °F 33.6 °F 28.4 °F 65% 30.29 in 10.0 mi SE 8.1 mph - N/A   Overcast
7:53 PM 39.2 °F 33.0 °F 28.4 °F 65% 30.29 in 10.0 mi SE 9.2 mph - N/A   Overcast
8:13 PM 39.2 °F 34.2 °F 28.4 °F 65% 30.30 in 10.0 mi SE 6.9 mph - N/A   Overcast
8:33 PM 39.2 °F 34.2 °F 30.2 °F 70% 30.30 in 10.0 mi SE 6.9 mph - N/A   Overcast
8:54 PM 39.2 °F 34.2 °F 28.4 °F 65% 30.30 in 10.0 mi SE 6.9 mph - N/A   Overcast
9:13 PM 39.2 °F 34.2 °F 28.4 °F 65% 30.30 in 10.0 mi SE 6.9 mph - N/A   Overcast
9:33 PM 39.2 °F 33.6 °F 28.4 °F 65% 30.30 in 10.0 mi SE 8.1 mph - N/A   Overcast
9:53 PM 39.2 °F 33.6 °F 28.4 °F 65% 30.30 in 10.0 mi SSE 8.1 mph - N/A   Overcast
10:13 PM 39.2 °F 34.2 °F 26.6 °F 61% 30.30 in 10.0 mi SSE 6.9 mph - N/A   Overcast
10:33 PM 39.2 °F 32.5 °F 26.6 °F 61% 30.29 in 10.0 mi SSE 10.4 mph - N/A   Overcast
10:53 PM 39.2 °F 33.0 °F 28.4 °F 65% 30.28 in 10.0 mi SE 9.2 mph - N/A   Mostly Cloudy
11:13 PM 39.2 °F 33.0 °F 28.4 °F 65% 30.28 in 10.0 mi SE 9.2 mph - N/A   Mostly Cloudy
11:33 PM 39.2 °F 32.5 °F 28.4 °F 65% 30.27 in 10.0 mi SE 10.4 mph - N/A   Overcast
11:53 PM 39.2 °F 32.5 °F 28.4 °F 65% 30.27 in 10.0 mi SSE 10.4 mph - N/A   Overcast